Location: Cahas Mountain Overlook
(37.0833°N, 80.1000°W)
Time: 18:19:53
(UTC-05:00)

ISS - Pass Details

Date: 03 December 2021
Orbit: 413 x 422 km, 51.6° (Epoch: 28 January)

Event Time Altitude Azimuth Distance (km) Brightness Sun altitude
Rises 18:48:59 0° 319° (NW) 2,379 0.5 -20.6°
Reaches altitude 10° 18:51:20 10° 333° (NNW) 1,509 -0.8 -21.0°
Enters shadow 18:52:16 15° 344° (NNW) 1,217 -1.4 -21.2°
